Regional Weather Roundup
Issued by NWS Midland/Odessa, TX

Home | Current Version | Previous Version | Text Only | Print | Product List | Glossary On
Versions: 1 2 3 4 5 6 7 8 9 10 11 12 13 14 15 16 17 18 19 20 21 22 23 24 25 26 27 28 29 30 31 32 33 34 35 36 37 38 39 40 41 42 43 44 45 46 47 48 49 50
000
ASUS44 KMAF 302310
RWRMAF
MIDLAND AREA WEATHER ROUNDUP
NATIONAL WEATHER SERVICE MIDLAND TX
600 PM CDT THU JUL 30 2015

...IN SOUTHWEST TEXAS AND SOUTHEAST NEW MEXICO...

CITY           SKY/WX    TMP DP  RH WIND       PRES   REMARKS
ALPINE         MOSUNNY   87  51  29 E6        30.24F
ANDREWS        FAIR      97  55  24 SE12G22   30.12F
ARTESIA        MOSUNNY   93  55  27 SE12      30.13F
BIG SPRING     MOSUNNY   95  55  25 E5        30.11F
CARLSBAD       MOSUNNY   97  53  22 E13G25    30.09F
DRYDEN           N/A     99  50  19 SE7G20    30.05F
FORT STOCKTON  MOSUNNY   96  53  23 E15G24    30.09F
GUAD PASS      MOSUNNY   84  55  36 NE17G23   30.28F
HOBBS          MOSUNNY   91  54  27 E13       30.16F
MARFA          MOSUNNY   88  54  31 NE12      30.23F
MIDLAND AIRPK  SUNNY    100  51  19 E13       30.10F
MIDLAND INTL   MOSUNNY   99  53  21 E18       30.09F
ODESSA         MOSUNNY   98  49  18 SE8G21    30.10F
PECOS          SUNNY    100  52  20 E14G21    30.04F
PRESIDIO       FAIR     101  47  16 MISG      30.02F
SEMINOLE       PTSUNNY   96  53  23 SE10G20   30.14F
SNYDER         SUNNY     96  59  29 SE7       30.10S
WINK           MOSUNNY  100  53  20 SE16      30.06F
$$
...OTHER STATIONS IN TEXAS...

CITY           SKY/WX    TMP DP  RH WIND       PRES   REMARKS
ABILENE        MOSUNNY   94  66  39 E10       30.06F
AMARILLO       PTSUNNY   82  66  58 E6        30.23F
AUSTIN         MOSUNNY  100  62  28 VRB3      29.97F HX 101
BROWNSVILLE    MOSUNNY   91  73  55 SE12      29.99F
CORPUS CHRISTI PTSUNNY   97  64  33 SE14      29.97F
DALLAS FTW     MOSUNNY  102  62  26 N13       29.98F HX 104
DEL RIO        SUNNY    100  52  19 SE13      29.98F
EL PASO        MOSUNNY   90  58  33 CALM      30.14F
HOUSTON INT    PTSUNNY   98  71  41 NE9       29.95S HX 106
LUBBOCK        LGT RAIN  85  62  46 NE6       30.17S
SAN ANGELO     SUNNY    100  58  24 E13       30.04F
SAN ANTONIO    MOSUNNY   97  63  32 SE10      30.00F
WACO           SUNNY    100  63  29 CALM      29.97F HX 102
WICHITA FALLS  NOT AVBL
$$
...OTHER LOCATIONS IN NEW MEXICO...

CITY           SKY/WX    TMP DP  RH WIND       PRES   REMARKS
ALAMAGORDO     PTSUNNY   84  57  39 SW8       30.19F
ALBUQUERQUE    PTSUNNY   82  55  39 CALM      30.30S
CANNON AFB     PTSUNNY   85  62  44 E8        30.23F
CLOVIS         CLOUDY    84  61  45 E8        30.25S
HOLLOMAN AFB   MOSUNNY   87  59  38 CALM      30.17F
ROSWELL        MOSUNNY   94  56  27 SE15G22   30.14F
RUIDOSO          N/A    N/A N/A N/A MISG        N/A
SANTA FE       CLOUDY    74  54  49 NW3       30.36F
TRUTH OR CONSE MOSUNNY   83  59  44 E5        30.21F
TUCUMCARI      PTSUNNY   84  61  45 SE5       30.24F
$$


USA.gov is the U.S. government's official web portal to all federal, state and local government web resources and services.